TimeMST,TemperatureF,Dew PointF,Humidity,Sea Level PressureIn,VisibilityMPH,Wind Direction,Wind SpeedMPH,Gust SpeedMPH,PrecipitationIn,Events,Conditions,WindDirDegrees,DateUTC
12:51 AM,73.9,53.1,48,29.78,10.0,Calm,Calm,-,N/A,,Clear,0,2012-10-22 07:51:00
1:51 AM,73.9,53.1,48,29.78,10.0,North,3.5,-,N/A,,Partly Cloudy,360,2012-10-22 08:51:00
2:51 AM,71.1,54.0,55,29.80,10.0,Calm,Calm,-,N/A,,Partly Cloudy,0,2012-10-22 09:51:00
6:51 AM,66.0,50.0,56,29.84,10.0,East,8.1,-,N/A,,Partly Cloudy,100,2012-10-22 13:51:00
7:51 AM,68.0,51.8,56,29.90,10.0,ESE,8.1,-,N/A,,Scattered Clouds,110,2012-10-22 14:51:00
8:51 AM,71.1,53.1,53,29.88,10.0,ESE,9.2,-,N/A,,Scattered Clouds,120,2012-10-22 15:51:00
9:51 AM,75.9,54.0,46,29.89,10.0,South,6.9,-,N/A,,Scattered Clouds,170,2012-10-22 16:51:00
10:51 AM,78.1,54.0,43,29.89,10.0,SW,5.8,-,N/A,,Scattered Clouds,220,2012-10-22 17:51:00
11:51 AM,81.0,55.0,41,29.87,10.0,SW,8.1,-,N/A,,Scattered Clouds,220,2012-10-22 18:51:00
12:51 PM,84.0,53.1,34,29.84,10.0,South,9.2,-,N/A,,Scattered Clouds,170,2012-10-22 19:51:00
1:51 PM,84.0,52.0,33,29.81,10.0,SSE,6.9,-,N/A,,Scattered Clouds,160,2012-10-22 20:51:00
2:51 PM,84.2,48.2,29,29.84,10.0,Calm,Calm,-,N/A,,Scattered Clouds,0,2012-10-22 21:51:00
3:51 PM,82.9,51.1,33,29.79,10.0,WSW,3.5,-,N/A,,Scattered Clouds,250,2012-10-22 22:51:00
4:51 PM,84.0,51.1,32,29.79,10.0,Calm,Calm,-,N/A,,Partly Cloudy,0,2012-10-22 23:51:00
5:51 PM,82.0,50.0,33,29.79,10.0,West,9.2,-,N/A,,Partly Cloudy,280,2012-10-23 00:51:00
6:51 PM,81.0,48.9,33,29.80,10.0,WNW,9.2,-,N/A,,Clear,290,2012-10-23 01:51:00
7:51 PM,80.6,48.2,32,29.84,10.0,NW,6.9,-,N/A,,Clear,310,2012-10-23 02:51:00
8:51 PM,78.8,50.0,36,29.85,10.0,Calm,Calm,-,N/A,,Clear,0,2012-10-23 03:51:00
9:51 PM,75.9,50.0,40,29.81,10.0,West,3.5,-,N/A,,Clear,260,2012-10-23 04:51:00
10:51 PM,73.9,50.0,43,29.81,10.0,Calm,Calm,-,N/A,,Clear,0,2012-10-23 05:51:00
11:51 PM,75.2,51.8,44,29.85,10.0,Calm,Calm,-,N/A,,Clear,0,2012-10-23 06:51:00